Regional Weather Roundup
Issued by NWS

Home | Current Version | Previous Version | Text Only | Print | Product List | Glossary On
Versions: 1 2 3 4 5 6 7 8 9 10 11 12 13 14 15 16 17 18 19 20 21 22 23 24 25 26 27 28 29 30 31 32 33 34 35 36 37 38 39 40 41 42 43 44 45 46 47 48 49 50
000
ASUS42 KFFC 170510
RWRGA
WEATHER ROUNDUP FOR GEORGIA
NATIONAL WEATHER SERVICE PEACHTREE CITY GA
1200 AM EST WED JAN 17 2018

NOTE: "FAIR" INDICATES FEW OR NO CLOUDS BELOW 12,000 FEET WITH NO
SIGNIFICANT WEATHER AND/OR OBSTRUCTIONS TO VISIBILITY.

* = USE WITH CAUTION. THE STATIONS MARKED WITH AN ASTERISK MAY NOT
REPORT WEATHER SUCH AS PRECIPITATION, FOG, OR THUNDER AND ARE NOT
QUALITY CONTROLLED BY NWS.

THE REMARK "TC" DENOTES TEMPERATURE READING IN DEGREES CELSIUS.

GAZ001>058-170600-
NORTH GEORGIA

CITY           SKY/WX    TMP DP  RH WIND       PRES   REMARKS
ATLANTA        CLOUDY    27  23  85 NW13      30.36F WCI  16
ATHENS         CLOUDY    37  30  75 W8        30.31F WCI  31
CHAMBLEE       CLOUDY    25  20  81 NW15      30.36F WCI  13
PEACHTREE CITY LGT SNOW  29  24  82 NW12G23   30.38F WCI  19
ROME           CLOUDY    22  12  65 N12       30.46F WCI  10
WEST ATLANTA   FLURRIES  26  23  88 NW7       30.39F WCI  18
GAINESVILLE    CLOUDY    29  26  89 W10       30.31F WCI  20
CARTERSVILLE   CLOUDY    22  16  78 VRB6      30.45F WCI  14


CITY           SKY/WX    TMP DP  RH WIND       PRES   REMARKS
DALTON*        CLOUDY    19  12  73 N13       30.48F WCI   7
LAWRENCEVILLE* CLOUDY    28  23  81 W8          N/A  WCI  20
MARIETTA       MOCLDY    25  19  80 NW15      30.37S WCI  12
KENNESAW*      LGT SNOW  23  20  88 NW9       30.40S FOG     WCI  13
CANTON*        CLOUDY    25  21  86 NW10G16   30.37S WCI  15
BLAIRSVILLE*   LGT SNOW  21  18  88 NW5       30.33F FOG     WCI  15
$$

GAZ059>098-102>109-170600-
CENTRAL GEORGIA

CITY           SKY/WX    TMP DP  RH WIND       PRES   REMARKS
AUGUSTA-BUSH   CLOUDY    43  37  79 CALM      30.28F
AUGUSTA-DANIEL CLOUDY    48  33  56 CALM      30.28F
COLUMBUS       CLOUDY    35  28  75 N9        30.39F WCI  28
MACON          CLOUDY    45  36  70 NW15      30.33F
ROBINS AFB     CLOUDY    47  37  68 NW12      30.31F


CITY           SKY/WX    TMP DP  RH WIND       PRES   REMARKS
LAGRANGE*      LGT SNOW  30  28  93 N9        30.40F WCI  22
SYLVANIA*      FAIR      38  37  95 CALM      30.30F
MILLEDGEVILLE* CLOUDY    45  34  65 NW9       30.33S
$$

GAZ099>101-110>166-170600-
SOUTH GEORGIA

CITY           SKY/WX    TMP DP  RH WIND       PRES   REMARKS
SAVANNAH       FAIR      38  35  89 CALM      30.31F
VALDOSTA       FAIR      35  32  88 CALM      30.30F
ALMA           FAIR      39  36  89 CALM      30.30F
ST SIMONS      FAIR      42  41  96 CALM      30.30F
FT STEWART     FAIR      36  33  89 CALM      30.29F
ALBANY         CLOUDY    48  39  71 NW8       30.36S
HUNTER AFB     FAIR      39  35  84 CALM      30.28F
MOODY AFB      FAIR      41  35  79 CALM      30.29F
BRUNSWICK      FAIR      37  36  93 CALM      30.31F


CITY           SKY/WX    TMP DP  RH WIND       PRES   REMARKS
BAINBRIDGE*    MOCLDY    46  43  87 NW10      30.35F
MOULTRIE*      FAIR      43  37  81 NW5       30.32S
VIDALIA*       FAIR      43  37  81 CALM      30.30F
WAYCROSS*      FAIR      40  38  91 CALM      30.30F
DOUGLAS*       FAIR      39  36  87 CALM      30.32S
$$



USA.gov is the U.S. government's official web portal to all federal, state and local government web resources and services.